"TOA5","AWS1","CR1000","7964","CR1000.Std.14","CPU:AWS1_114.CR1","64363","TBL110"
"TIMESTAMP","RECORD","Wind_spd_WVc(1)","Wind_spd_WVc(2)","Air_Temp_Avg","Humidity_Avg","SW_upper_Wm2_Avg","Rain_Tot","Press_Avg","Issui_Tot","Depth_cm","SR50A_Raw","Quality","Ground_Temp_Avg(1)","Ground_Temp_Avg(2)","SW_lower_Wm2_Avg","Albedo_Avg","SWC_per(1)","SWC_per(2)","Period(1)","Period(2)"
"TS","RN","","","","","","","","","","","","","","","","","","",""
"","","WVc","WVc","Avg","Avg","Avg","Tot","Avg","Tot","Smp","Smp","Smp","Avg","Avg","Avg","Avg","Smp","Smp","Smp","Smp"
"2017-11-08 00:00:00",313549,0.674,153.9,9.5,69.87,0,0,870.7703,0,10.65,3.021,239,6.303,7.429,0.01516332,0,51.1,58.32,33.57,35.29
"2017-11-08 00:10:00",313550,0.604,153.4,9.61,69.78,0,0,870.6907,0,10.58,3.021,239,6.3,7.424,0,0,51.1,58.32,33.57,35.29
"2017-11-08 00:20:00",313551,0.883,156.9,9.66,70.12,0,0,870.5956,0,11.81,3.009,240,6.291,7.415,0,0,51.1,58.38,33.57,35.31
"2017-11-08 00:30:00",313552,0.687,159.1,9.68,70.56,0,0,870.4987,0,11.17,3.014,242,6.258,7.405,0,0,51.1,58.32,33.57,35.29
"2017-11-08 00:40:00",313553,0.789,156.3,9.82,70.35,0,0,870.4396,0,10.25,3.023,240,6.257,7.391,0,0,51.1,58.32,33.57,35.29
"2017-11-08 00:50:00",313554,0.553,152,9.76,70.22,0,0,870.4396,0,10.58,3.021,239,6.292,7.367,0,0,51.1,58.32,33.57,35.29
"2017-11-08 01:00:00",313555,0.447,155.1,9.66,70.25,0,0,870.3512,0,10.67,3.02,248,6.282,7.356,0,0,51.16,58.32,33.58,35.29
"2017-11-08 01:10:00",313556,0.422,164.2,9.71,69.8,0,0,870.2648,0,10.55,3.021,232,6.299,7.335,0,0,51.1,58.32,33.57,35.29
"2017-11-08 01:20:00",313557,0.262,143.6,9.58,70.5,0,0,870.1742,0,10.59,3.022,240,6.32,7.342,0,0,51.1,58.32,33.57,35.29
"2017-11-08 01:30:00",313558,0.364,147.1,9.52,70.78,0,0,870.0984,0,10.67,3.021,233,6.326,7.336,0,0,51.1,58.32,33.57,35.29
"2017-11-08 01:40:00",313559,0.632,155.2,9.67,70.08,0,0,869.9342,0,10.38,3.022,234,6.34,7.333,0,0,51.1,58.32,33.57,35.29
"2017-11-08 01:50:00",313560,0.481,144.3,9.7,69.84,0,0,869.7404,0,10.75,3.02,234,6.346,7.326,0,0,51.1,58.32,33.57,35.29
"2017-11-08 02:00:00",313561,0.312,164.6,9.66,70.16,0,0,869.6814,0,10.6,3.021,240,6.337,7.322,0,0,51.1,58.32,33.57,35.29
"2017-11-08 02:10:00",313562,0.507,150,9.66,70.36,0,0,869.6771,0,10.45,3.023,233,6.316,7.312,0,0,51.1,58.32,33.57,35.29
"2017-11-08 02:20:00",313563,0.443,139.3,9.62,70.74,0,0,869.5803,0,10.53,3.022,237,6.31,7.317,0,0,51.05,58.32,33.56,35.29
"2017-11-08 02:30:00",313564,0.238,140,9.52,71.63,0,0,869.6393,0,10.42,3.023,223,6.3,7.317,0,0,51.1,58.32,33.57,35.29
"2017-11-08 02:40:00",313565,0.169,166.5,9.56,71.92,0,0,869.6855,0,10.6,3.022,237,6.299,7.322,0,0,51.1,58.32,33.57,35.29
"2017-11-08 02:50:00",313566,0.174,133,9.52,72.44,0,0,869.6814,0,10.6,3.022,227,6.298,7.324,0.02273727,0,51.1,58.32,33.57,35.29
"2017-11-08 03:00:00",313567,0.155,121.9,9.53,73.39,0,0,869.6835,0,10.6,3.022,238,6.289,7.314,0,0,51.1,58.32,33.57,35.29
"2017-11-08 03:10:00",313568,0.558,150.2,9.53,75.17,0,0,869.6814,0,10.67,3.021,237,6.268,7.323,0,0,51.1,58.32,33.57,35.29
"2017-11-08 03:20:00",313569,0.577,132.9,9.49,76.73,0,0,869.6814,0,10.67,3.021,238,6.259,7.332,0,0,51.1,58.32,33.57,35.29
"2017-11-08 03:30:00",313570,0.62,134.4,9.47,78.78,0,0,869.6309,0,10.49,3.024,238,6.26,7.377,0,0,51.05,58.32,33.56,35.29
"2017-11-08 03:40:00",313571,0.5,119.3,9.26,80.6,0,0,869.6814,0,10.71,3.023,234,6.258,7.374,0,0,51.1,58.26,33.57,35.28
"2017-11-08 03:50:00",313572,0.668,145.9,9.08,82.4,0,0,869.6771,0,10.56,3.024,233,6.26,7.372,0,0,51.05,58.32,33.56,35.29
"2017-11-08 04:00:00",313573,0.613,152.4,9.11,82.7,0,0,869.3613,0,10.86,3.021,238,6.286,7.376,0,0,51.1,58.26,33.57,35.28
"2017-11-08 04:10:00",313574,0.598,159.5,9.17,81.8,0,0,869.1949,0,10.89,3.021,238,6.347,7.376,0,0,51.1,58.26,33.57,35.28
"2017-11-08 04:20:00",313575,0.459,148.2,9.27,80.7,0,0,869.2496,0,11.25,3.017,232,6.393,7.366,0,0,51.1,58.32,33.57,35.29
"2017-11-08 04:30:00",313576,0.535,153.5,9.38,79.08,0,0,869.1401,0,10.93,3.019,237,6.416,7.372,0,0,51.1,58.26,33.57,35.28
"2017-11-08 04:40:00",313577,0.508,165.3,9.37,78.14,0,0,869.1591,0,10.7,3.021,216,6.392,7.366,0,0,51.05,58.26,33.56,35.28
"2017-11-08 04:50:00",313578,0.231,174.8,9.43,76.98,0,0,869.3992,0,10.89,3.02,232,6.387,7.376,0,0,51.1,58.26,33.57,35.28
"2017-11-08 05:00:00",313579,0.547,155.6,9.42,76.37,0,0,869.1801,0,10.98,3.018,221,6.386,7.372,0.1326341,0,51.05,58.26,33.56,35.28
"2017-11-08 05:10:00",313580,0.572,121.5,9.55,75.61,0,0,869.3444,0,10.93,3.018,216,6.386,7.406,0.01515818,0,51.1,58.26,33.57,35.28
"2017-11-08 05:20:00",313581,0.476,141.5,9.49,76.44,0,0,869.1506,0,10.77,3.021,234,6.402,7.4,0,0,51.1,58.26,33.57,35.28
"2017-11-08 05:30:00",313582,0.735,152.6,9.47,76.7,0,0,869.0117,0,11,3.018,244,6.443,7.409,0,0,51.05,58.26,33.56,35.28
"2017-11-08 05:40:00",313583,0.504,141.3,9.5,76.62,0,0,868.7757,0,10.93,3.019,230,6.445,7.437,0,0,51.05,58.26,33.56,35.28
"2017-11-08 05:50:00",313584,0.43,81,9.44,77.3,0,0,868.9421,0,10.93,3.019,237,6.433,7.446,0,0,51.05,58.26,33.56,35.28
"2017-11-08 06:00:00",313585,0.577,141.8,9.48,77.08,0,0,868.7546,0,10.97,3.019,236,6.438,7.45,0,0,51.05,58.26,33.56,35.28
"2017-11-08 06:10:00",313586,0.694,149.4,9.41,77.81,0,0,868.8347,0,10.77,3.021,232,6.489,7.456,0,0,51.05,58.26,33.56,35.28
"2017-11-08 06:20:00",313587,0.556,151.3,9.42,78.4,0,0,868.8684,0,10.82,3.02,225,6.49,7.461,0,0,51.1,58.26,33.57,35.28
"2017-11-08 06:30:00",313588,0.572,152.1,9.48,78.56,0.6642185,0,869.0284,0,11.18,3.016,237,6.475,7.466,0.003789545,0.002,51.05,58.26,33.56,35.28
"2017-11-08 06:40:00",313589,0.822,163.5,9.52,78.43,3.953869,0,868.8094,0,10.85,3.019,236,6.473,7.462,0.6366435,0.158,51.05,58.26,33.56,35.28
"2017-11-08 06:50:00",313590,0.647,155.2,9.64,77.85,5.667474,0,868.8304,0,10.85,3.019,237,6.47,7.457,0.7806461,0.139,51.05,58.26,33.56,35.28
"2017-11-08 07:00:00",313591,1.123,153.8,9.56,78.65,9.401246,0,868.3376,0,11.03,3.017,227,6.453,7.438,1.356657,0.143,51.05,58.26,33.56,35.28
"2017-11-08 07:10:00",313592,0.873,151.1,9.69,78.36,18.13434,0,868.2239,0,10.82,3.018,238,6.438,7.431,2.872475,0.159,51.05,58.26,33.56,35.28
"2017-11-08 07:20:00",313593,0.449,290.9,9.83,77.68,21.78558,0,868.6556,0,10.69,3.019,233,6.489,7.426,3.213534,0.145,51.05,58.26,33.56,35.28
"2017-11-08 07:30:00",313594,0.202,33.18,9.69,78.88,15.08837,0,869.1401,0,10.85,3.019,236,6.516,7.43,1.796244,0.117,51.05,58.26,33.56,35.28
"2017-11-08 07:40:00",313595,0.037,353,9.51,80.3,26.3172,0,868.9674,0,10.85,3.019,232,6.512,7.425,3.221113,0.122,51.05,58.26,33.56,35.28
"2017-11-08 07:50:00",313596,0.205,40.81,9.5,80.7,16.24388,0,868.9443,0,10.85,3.019,237,6.525,7.425,1.743191,0.107,50.99,58.26,33.54,35.28
"2017-11-08 08:00:00",313597,0.104,45.53,9.58,80.6,24.85513,0,868.9611,0,10.75,3.02,232,6.557,7.425,3.096058,0.124,51.05,58.26,33.56,35.28
"2017-11-08 08:10:00",313598,0.08,97.7,9.56,81.5,36.18615,0,869.0474,0,10.73,3.02,222,6.559,7.425,4.585349,0.126,51.05,58.26,33.56,35.28
"2017-11-08 08:20:00",313599,0.565,147.4,9.41,82.9,45.31621,0,868.8347,0,10.43,3.025,241,6.558,7.425,6.032955,0.133,51.05,58.26,33.56,35.28
"2017-11-08 08:30:00",313600,0.242,131.9,9.17,86,23.32232,0,868.8853,0,9.51,3.035,261,6.555,7.425,2.978582,0.128,51.05,58.26,33.56,35.28
"2017-11-08 08:40:00",313601,0.228,142.6,8.89,89,19.70253,0,868.78,0,8.94,3.042,270,6.576,7.425,2.455625,0.125,50.99,58.26,33.54,35.28
"2017-11-08 08:50:00",313602,0.243,125.1,8.77,91.1,23.15725,0,868.7083,0,11.04,3.022,259,6.59,7.425,2.819421,0.121,50.99,58.26,33.54,35.28
"2017-11-08 09:00:00",313603,0.213,147.1,8.66,92.5,21.81309,0,868.6873,0,11.73,3.015,242,6.6,7.425,2.656471,0.122,50.99,58.21,33.54,35.26
"2017-11-08 09:10:00",313604,0.381,133.2,8.66,92.2,32.50347,0.5,868.6578,0,12.13,3.012,241,6.635,7.425,4.069971,0.125,51.05,58.21,33.56,35.26
"2017-11-08 09:20:00",313605,0.374,152.6,8.55,92.9,32.53885,0,868.424,0,12.44,3.009,234,6.669,7.425,3.956284,0.122,50.99,58.21,33.54,35.26
"2017-11-08 09:30:00",313606,0.598,143.7,8.51,93.4,48.99495,0.5,868.4198,0,12.74,3.006,266,6.647,7.425,5.851057,0.12,51.05,58.21,33.56,35.26
"2017-11-08 09:40:00",313607,0.785,149.6,8.58,93.3,70.24209,0,868.3102,0,13.61,2.997,330,6.645,7.425,8.587108,0.122,50.99,58.21,33.54,35.26
"2017-11-08 09:50:00",313608,0.979,149.5,8.65,91.7,77.62709,0.5,868.1165,0,13.89,2.994,408,6.641,7.425,9.542072,0.123,51.05,58.21,33.56,35.26
"2017-11-08 10:00:00",313609,1.119,142.8,8.66,91.4,69.6211,0,868.0596,0,13.38,2.999,387,6.64,7.425,8.390051,0.12,50.99,58.21,33.54,35.26
"2017-11-08 10:10:00",313610,0.792,145.4,8.66,91.9,62.61733,0,868.066,0,13.2,3.001,306,6.61,7.426,7.628353,0.122,50.99,58.21,33.54,35.26
"2017-11-08 10:20:00",313611,0.938,151.9,8.63,91.7,86.32089,0,867.9122,0,13.97,2.993,384,6.68,7.425,10.67894,0.123,50.99,58.21,33.54,35.26
"2017-11-08 10:30:00",313612,0.723,156.5,8.77,89.9,53.74667,0,867.9985,0,14.15,2.991,388,6.726,7.425,6.65444,0.124,50.99,58.21,33.54,35.26
"2017-11-08 10:40:00",313613,0.236,196.1,8.79,90.1,18.90075,0,868.0175,0,13.23,3,277,6.732,7.425,2.421519,0.128,50.99,58.21,33.54,35.26
"2017-11-08 10:50:00",313614,0.258,5.696,8.67,92.9,12.69483,0,867.9501,0,13.1,3.002,253,6.732,7.426,1.508239,0.119,50.99,58.21,33.54,35.26
"2017-11-08 11:00:00",313615,0.179,120.4,8.57,96.3,23.11009,0,867.8912,0,12.97,3.004,237,6.732,7.426,2.459414,0.104,50.99,58.21,33.54,35.26
"2017-11-08 11:10:00",313616,0.589,115.7,8.55,99,56.63151,0.5,867.5372,0,13.04,3.003,236,6.726,7.425,6.226222,0.11,50.99,58.21,33.54,35.26
"2017-11-08 11:20:00",313617,0.619,132.3,8.63,100,50.7911,0,867.4067,0,12.69,3.006,230,6.821,7.432,5.551682,0.109,50.99,58.21,33.54,35.26
"2017-11-08 11:30:00",313618,0.907,132.4,8.57,100,54.37945,0,867.3224,0,13,3.003,240,6.82,7.432,6.226222,0.114,50.99,58.21,33.54,35.26
"2017-11-08 11:40:00",313619,0.666,119.5,8.71,100,91.38309,0,867.0865,0,12.78,3.004,229,6.819,7.461,10.48567,0.114,50.99,58.21,33.54,35.26
"2017-11-08 11:50:00",313620,0.726,100.7,8.82,100,105.5243,0,866.7643,0,12.94,3.002,235,6.823,7.509,12.2137,0.115,50.99,58.21,33.54,35.26
"2017-11-08 12:00:00",313621,0.526,106.2,9.05,100,102.3014,0,866.6631,0,13.05,3,228,6.84,7.537,11.52022,0.113,51.05,58.21,33.56,35.26
"2017-11-08 12:10:00",313622,0.622,96.9,9.14,100,109.5882,0,866.4673,0,12.94,3.001,241,6.878,7.524,12.60023,0.114,50.99,58.21,33.54,35.26
"2017-11-08 12:20:00",313623,0.315,111.8,9.15,100,85.7903,0,866.3957,0,12.9,3.001,241,6.904,7.514,9.742919,0.113,50.99,58.21,33.54,35.26
"2017-11-08 12:30:00",313624,0.601,104.6,9.16,99.6,72.71816,0,866.2462,0,12.9,3.001,242,6.929,7.512,8.310472,0.114,51.05,58.21,33.56,35.26
"2017-11-08 12:40:00",313625,0.372,114.9,9.14,98.8,49.30545,0,866.2061,0,13.12,2.999,242,6.942,7.512,5.373574,0.108,51.05,58.21,33.56,35.26
"2017-11-08 12:50:00",313626,0.299,93.9,9.13,97.9,51.52606,0,866.2293,0,13.1,2.999,237,6.955,7.512,5.983691,0.116,50.99,58.21,33.54,35.26
"2017-11-08 13:00:00",313627,0.42,120.1,9.13,98.1,79.60796,0,865.9407,0,12.9,3.001,243,6.993,7.512,9.409439,0.118,51.05,58.21,33.56,35.26
"2017-11-08 13:10:00",313628,0.314,7.983,9.18,98.6,21.09385,0,865.8903,0,12.84,3.002,250,6.991,7.512,2.16004,0.101,50.99,58.26,33.54,35.28
"2017-11-08 13:20:00",313629,0.338,44.7,9.04,99.7,26.667,0,865.8903,0,12.74,3.003,243,6.969,7.512,2.989951,0.11,51.05,58.21,33.56,35.26
"2017-11-08 13:30:00",313630,0.173,96,9.09,100,37.94299,0,865.8903,0,12.84,3.002,244,6.955,7.512,4.308712,0.113,51.05,58.21,33.56,35.26
"2017-11-08 13:40:00",313631,0.213,104.4,9.05,100,32.8965,0,865.825,0,12.76,3.003,237,7.024,7.511,3.721333,0.113,50.99,58.21,33.54,35.26
"2017-11-08 13:50:00",313632,0.578,47.09,8.9,100,27.06003,0,865.669,0,12.73,3.004,244,7.077,7.513,3.043004,0.111,51.05,58.21,33.56,35.26
"2017-11-08 14:00:00",313633,0.159,34.17,8.85,100,21.54583,0,865.8018,0,12.8,3.004,243,7.079,7.519,2.463204,0.114,51.05,58.21,33.56,35.26
"2017-11-08 14:10:00",313634,0.135,36.37,8.8,100,37.36131,0,865.6458,0,12.88,3.003,242,7.097,7.539,4.596717,0.122,51.05,58.21,33.56,35.26
"2017-11-08 14:20:00",313635,0.222,62.66,8.87,100,63.82786,0,865.669,0,12.91,3.002,249,7.12,7.569,8.120994,0.127,51.05,58.26,33.56,35.28
"2017-11-08 14:30:00",313636,0.345,138.1,9.02,100,62.64878,0,865.6332,0,12.94,3.001,278,7.15,7.57,8.15131,0.13,51.05,58.21,33.56,35.26
"2017-11-08 14:40:00",313637,0.224,137.2,9.04,100,83.84874,0,865.6269,0,13.01,3.001,255,7.144,7.556,10.80778,0.129,51.05,58.21,33.56,35.26
"2017-11-08 14:50:00",313638,0.364,141.3,9.01,100,97.38465,0,865.4395,0,12.87,3.002,250,7.124,7.555,12.71392,0.13,51.05,58.21,33.56,35.26
"2017-11-08 15:00:00",313639,0.522,155.5,9.01,99,46.79399,0,865.5532,0,13.04,3.001,235,7.174,7.556,5.915479,0.126,51.05,58.21,33.56,35.26
"2017-11-08 15:10:00",313640,0.636,145.5,8.82,96.8,41.32304,0,865.4626,0,12.76,3.004,242,7.207,7.587,5.559262,0.135,51.05,58.21,33.56,35.26
"2017-11-08 15:20:00",313641,0.582,146.9,8.9,96,47.92592,0,865.3889,0,12.83,3.003,243,7.179,7.601,6.495279,0.136,51.05,58.21,33.56,35.26
"2017-11-08 15:30:00",313642,0.462,130.9,8.95,95.1,46.51495,0,865.5005,0,12.86,3.003,242,7.235,7.601,6.707494,0.144,51.05,58.21,33.56,35.26
"2017-11-08 15:40:00",313643,0.458,125.4,8.95,94.4,59.01719,0,865.3848,0,12.76,3.004,242,7.255,7.599,8.249838,0.139,51.1,58.21,33.57,35.26
"2017-11-08 15:50:00",313644,0.265,130.7,8.9,93.9,37.81722,0,865.3848,0,12.76,3.004,237,7.28,7.598,5.187886,0.138,51.05,58.21,33.56,35.26
"2017-11-08 16:00:00",313645,0.322,119.4,8.86,93.1,46.8333,0,865.3574,0,12.81,3.003,244,7.268,7.598,7.442666,0.157,51.05,58.21,33.56,35.26
"2017-11-08 16:10:00",313646,0.281,113.4,8.96,92.5,19.57676,0,865.3826,0,13.01,3.002,242,7.292,7.598,2.902791,0.15,51.05,58.21,33.56,35.26
"2017-11-08 16:20:00",313647,0.481,139.1,8.8,92,17.13998,0,865.3342,0,12.68,3.005,232,7.313,7.598,3.050583,0.175,51.05,58.21,33.56,35.26
"2017-11-08 16:30:00",313648,0.429,127.1,8.74,92.5,18.94398,0,865.3194,0,13.1,3.002,240,7.337,7.598,3.387853,0.179,51.05,58.21,33.56,35.26
"2017-11-08 16:40:00",313649,0.403,143.9,8.66,91.9,5.907221,0,865.3721,0,13.1,3.002,240,7.322,7.598,1.25055,0.218,51.1,58.21,33.57,35.26
"2017-11-08 16:50:00",313650,0.494,151.3,8.65,91.3,1.92191,0,865.3784,0,13.1,3.002,234,7.307,7.598,0.9094906,0.496,51.1,58.21,33.57,35.26
"2017-11-08 17:00:00",313651,0.368,122.1,8.55,92,0.3615864,0,865.3826,0,13.02,3.003,241,7.296,7.598,0.5305362,0.292,51.05,58.21,33.56,35.26
"2017-11-08 17:10:00",313652,0.276,164.1,8.49,92.2,0,0,865.3658,0,12.79,3.006,224,7.296,7.597,0.4547453,0,51.1,58.21,33.57,35.26
"2017-11-08 17:20:00",313653,0.475,150.8,8.37,92.4,0,0,865.2036,0,13.06,3.004,229,7.354,7.596,0.4547453,0,51.1,58.21,33.57,35.26
"2017-11-08 17:30:00",313654,0.526,165.7,8.25,92.7,0,0,865.1319,0,13.08,3.004,229,7.382,7.598,0.4774826,0,51.1,58.21,33.57,35.26
"2017-11-08 17:40:00",313655,0.619,136.4,8.3,91,0,0,865.054,0,13.06,3.004,240,7.413,7.613,0.8753847,0,51.1,58.21,33.57,35.26
"2017-11-08 17:50:00",313656,0.644,162.4,8.39,89.1,0.01572115,0,864.9803,0,13.27,3.001,239,7.427,7.643,1.019387,0.088,51.1,58.21,33.57,35.26
"2017-11-08 18:00:00",313657,0.613,152.1,8.42,88.5,0.08253602,0,865.0983,0,13.08,3.004,235,7.425,7.656,0.8602266,0.426,51.1,58.21,33.57,35.26
"2017-11-08 18:10:00",313658,0.148,151.9,8.19,90.3,0,0,865.1319,0,13.08,3.005,234,7.425,7.682,0.5646421,0,51.1,58.21,33.57,35.26
"2017-11-08 18:20:00",313659,0.482,149.8,8.25,90,0.1572115,0,865.1298,0,13.39,3.001,240,7.425,7.711,0.8753847,0.667,51.1,58.21,33.57,35.26
"2017-11-08 18:30:00",313660,0.531,162.3,8.23,90.1,0,0,865.0856,0,13.33,3.002,237,7.425,7.727,0.7692775,0,51.1,58.21,33.57,35.26
"2017-11-08 18:40:00",313661,0.43,141.3,8.18,90.1,0.04323375,0,865.1319,0,13.21,3.003,227,7.427,7.729,0.7048613,0.418,51.1,58.21,33.57,35.26
"2017-11-08 18:50:00",313662,0.725,146.5,8.2,90.6,0.341939,0,865.0435,0,13.56,3,231,7.428,7.713,0.8185512,1.543,51.05,58.26,33.56,35.28
"2017-11-08 19:00:00",313663,0.711,155.2,8.15,90.9,0,0,864.8792,0,13.66,2.999,236,7.431,7.696,0.78066,0,51.1,58.26,33.57,35.28
"2017-11-08 19:10:00",313664,0.414,144,8.25,90.3,0.4008935,0,864.8792,0,13.67,2.998,235,7.428,7.688,0.8071808,1.503,51.05,58.21,33.56,35.26
"2017-11-08 19:20:00",313665,0.469,130.8,8.27,90.4,0,0,864.7844,0,13.61,2.999,235,7.431,7.691,0.4812824,0,51.1,58.26,33.57,35.28
"2017-11-08 19:30:00",313666,0.576,148.4,8.15,91,0.01965174,0,864.6264,0,13.71,2.998,235,7.43,7.683,0.4812828,0.129,51.05,58.26,33.56,35.28
"2017-11-08 19:40:00",313667,0.32,150.4,8.21,90.4,0.2279591,0,864.6264,0,13.64,2.999,235,7.425,7.66,0.5684373,0.876,51.1,58.26,33.57,35.28
"2017-11-08 19:50:00",313668,0.457,58.07,8.16,91.4,0,0,864.6222,0,13.58,3,230,7.422,7.651,0.4547482,0,51.1,58.26,33.57,35.28
"2017-11-08 20:00:00",313669,0.461,127,8.15,92,0,0,864.5085,0,13.63,2.999,235,7.402,7.658,0.6177085,0,51.1,58.26,33.57,35.28
"2017-11-08 20:10:00",313670,0.557,126.3,8.16,91.5,0,0,864.5822,0,13.64,2.999,235,7.407,7.678,0.7010794,0,51.1,58.26,33.57,35.28
"2017-11-08 20:20:00",313671,0.305,60.03,8.24,91,0,0,864.6264,0,13.39,3.001,230,7.418,7.727,0.8109692,0,51.05,58.26,33.56,35.28
"2017-11-08 20:30:00",313672,0.46,124.1,8.28,90.5,0,0,864.6264,0,13.54,2.999,229,7.437,7.756,0.7617004,0,51.1,58.26,33.57,35.28
"2017-11-08 20:40:00",313673,0.577,138.1,8.31,90.1,0,0,864.4727,0,13.57,2.999,235,7.45,7.794,0.8981225,0,51.1,58.26,33.57,35.28
"2017-11-08 20:50:00",313674,0.491,94.2,8.33,89.6,0,0,864.6054,0,13.69,2.998,236,7.441,7.793,0.9094906,0,51.1,58.26,33.57,35.28
"2017-11-08 21:00:00",313675,0.913,9.94,8.31,89.7,0,0,864.5969,0,13.08,3.004,232,7.473,7.776,0.9094906,0,51.1,58.26,33.57,35.28
"2017-11-08 21:10:00",313676,0.683,346.2,8.05,91.6,0,0,864.9592,0,12.79,3.009,245,7.506,7.771,0.3448485,0,51.1,58.26,33.57,35.28
"2017-11-08 21:20:00",313677,0.302,290.2,7.76,92.6,0,0,864.9887,0,13.21,3.006,251,7.492,7.772,0.3524276,0,51.1,58.26,33.57,35.28
"2017-11-08 21:30:00",313678,0.097,321.9,7.618,94.4,0,0,865.1235,0,13.53,3.004,269,7.485,7.771,0.05305362,0,51.1,58.26,33.57,35.28
"2017-11-08 21:40:00",313679,0.16,158.6,7.444,95.6,0,0,865.0392,0,13.67,3.003,270,7.515,7.773,0,0,51.1,58.26,33.57,35.28
"2017-11-08 21:50:00",313680,0.495,359,7.37,96.3,0.2987113,0,864.934,0,13.31,3.007,245,7.511,7.779,0.2539077,0.344,51.1,58.26,33.57,35.28
"2017-11-08 22:00:00",313681,0.41,28.82,7.337,93.5,0.5148909,0,864.8603,0,13.42,3.006,236,7.526,7.783,0.4547659,0.919,51.1,58.26,33.57,35.28
"2017-11-08 22:10:00",313682,0.865,206.4,7.133,92.5,0.007860918,0,864.9045,0,12.54,3.016,240,7.545,7.784,0.4547669,0.016,51.1,58.26,33.57,35.28
"2017-11-08 22:20:00",313683,0.627,205.1,6.907,94,0,0.5,864.8076,0,13.44,3.008,317,7.541,7.795,0.4547829,0,51.1,58.26,33.57,35.28
"2017-11-08 22:30:00",313684,0.756,250.4,6.813,94.7,0,0,864.8771,0,12.56,3.017,245,7.563,7.818,0.4548227,0,51.1,58.26,33.57,35.28
"2017-11-08 22:40:00",313685,0.749,307.5,6.838,93.3,0,0,864.7844,0,13.54,3.007,379,7.582,7.842,0.7201807,0,51.1,58.26,33.57,35.28
"2017-11-08 22:50:00",313686,1.126,326.9,7.029,89.9,0,0.5,864.8497,0,12.45,3.017,238,7.611,7.855,0.8869995,0,51.1,58.26,33.57,35.28
"2017-11-08 23:00:00",313687,1.067,308.9,6.909,92.5,0,0.5,864.875,0,13.43,3.008,252,7.644,7.872,0.4624707,0,51.1,58.26,33.57,35.28
"2017-11-08 23:10:00",313688,0.883,310,7.037,91.5,0.02752114,0,864.8792,0,12.42,3.017,271,7.647,7.893,0.7771149,0.161,51.1,58.26,33.57,35.28
"2017-11-08 23:20:00",313689,0.642,311.1,7.01,91.9,0,0,864.9193,0,11.25,3.029,243,7.656,7.893,0.8643087,0,51.1,58.26,33.57,35.28
"2017-11-08 23:30:00",313690,0.836,350.3,7.033,91.5,0.1769232,0,865.1319,0,11.99,3.021,239,7.662,7.907,0.9173819,0.757,51.1,58.26,33.57,35.28
"2017-11-08 23:40:00",313691,0.719,336,7.036,89.8,0,0,865.1109,0,11.4,3.028,236,7.66,7.931,0.9060099,0,51.1,58.26,33.57,35.28
"2017-11-08 23:50:00",313692,1.084,324.9,7.038,88.1,0.01965814,0,865.1339,0,11.99,3.022,243,7.632,7.95,1.247185,0.482,51.1,58.26,33.57,35.28
